| time (UTC) | temp C | wind direction | speed KPH | gust KPH | rain 1hr cm | rain 24hr cm | rain mn cm | humidity % | barometer mb |
| 20260502210001 | 8 | 113 | 6.4 | 0.0 | 0.00 | 0.00 | 0.56 | 90 | 1011.5 |
| 20260502205001 | 7 | 135 | 3.2 | 0.0 | 0.00 | 0.00 | 0.56 | 92 | 1011.5 |
| 20260502204501 | 7 | 135 | 6.4 | 0.0 | 0.00 | 0.00 | 0.56 | 92 | 1011.5 |
| 20260502204006 | 7 | 135 | 1.6 | 0.0 | 0.05 | 0.00 | 0.56 | 94 | 1011.5 |
| 20260502203501 | 6 | 113 | 3.2 | 0.0 | 0.05 | 0.00 | 0.56 | 94 | 1011.5 |
| 20260502202501 | 6 | 113 | 4.8 | 0.0 | 0.15 | 0.00 | 0.56 | 95 | 1011.5 |
| 20260502202002 | 6 | 135 | 4.8 | 0.0 | 0.25 | 0.00 | 0.56 | 96 | 1011.5 |
| 20260502201502 | 6 | 113 | 6.4 | 0.0 | 0.25 | 0.00 | 0.56 | 99 | 1011.5 |
| 20260502200502 | 6 | 113 | 4.8 | 0.0 | 0.41 | 0.00 | 0.56 | 99 | 1011.5 |
| 20260502200002 | 5 | 113 | 4.8 | 0.0 | 0.41 | 0.00 | 0.56 | 99 | 1011.5 |
| 20260502195502 | 5 | 113 | 8.0 | 0.0 | 0.41 | 0.00 | 0.56 | 99 | 1011.5 |
| 20260502194001 | 5 | 113 | 4.8 | 0.0 | 0.36 | 0.00 | 0.51 | 99 | 1012.2 |
| 20260502193501 | 5 | 203 | 0.0 | 0.0 | 0.30 | 0.00 | 0.46 | 99 | 1012.2 |
| 20260502192501 | 5 | 248 | 3.2 | 0.0 | 0.23 | 0.00 | 0.38 | 98 | 1011.9 |
| 20260502192002 | 5 | 225 | 8.0 | 0.0 | 0.15 | 0.00 | 0.30 | 98 | 1012.2 |
| 20260502191002 | 6 | 270 | 9.7 | 0.0 | 0.00 | 0.00 | 0.15 | 94 | 1011.9 |
| 20260502190502 | 7 | 270 | 14.5 | 0.0 | 0.00 | 0.00 | 0.15 | 87 | 1011.5 |
| 20260502190001 | 8 | 270 | 6.4 | 0.0 | 0.00 | 0.00 | 0.15 | 76 | 1011.5 |
| 20260502185501 | 10 | 225 | 4.8 | 0.0 | 0.00 | 0.00 | 0.15 | 66 | 1011.2 |
| 20260502185002 | 11 | 158 | 4.8 | 0.0 | 0.00 | 0.00 | 0.15 | 64 | 1011.2 |
| 20260502184502 | 11 | 270 | 4.8 | 0.0 | 0.00 | 0.00 | 0.15 | 60 | 1011.2 |
| 20260502184002 | 12 | 293 | 3.2 | 0.0 | 0.00 | 0.00 | 0.15 | 61 | 1011.2 |
| 20260502183502 | 11 | 270 | 0.0 | 0.0 | 0.00 | 0.00 | 0.15 | 63 | 1011.2 |
| 20260502183002 | 11 | 180 | 1.6 | 0.0 | 0.00 | 0.00 | 0.15 | 63 | 1011.2 |
| 20260502182502 | 12 | 135 | 0.0 | 0.0 | 0.00 | 0.00 | 0.15 | 59 | 1011.2 |
| 20260502182002 | 13 | 113 | 1.6 | 0.0 | 0.00 | 0.00 | 0.15 | 56 | 1011.2 |
| 20260502181502 | 13 | 113 | 8.0 | 0.0 | 0.00 | 0.00 | 0.15 | 59 | 1011.2 |
| 20260502181002 | 12 | 90 | 1.6 | 0.0 | 0.00 | 0.00 | 0.15 | 60 | 1011.5 |
| 20260502180502 | 12 | 315 | 3.2 | 0.0 | 0.00 | 0.00 | 0.15 | 61 | 1011.2 |
| 20260502170501 | 11 | 90 | 4.8 | 0.0 | 0.00 | 0.00 | 0.15 | 69 | 1011.9 |
| 20260502164001 | 10 | 315 | 0.0 | 0.0 | 0.00 | 0.00 | 0.15 | 69 | 1011.9 |
| 20260502162502 | 11 | 135 | 1.6 | 0.0 | 0.00 | 0.00 | 0.15 | 67 | 1012.2 |
| 20260502162002 | 12 | 113 | 1.6 | 0.0 | 0.00 | 0.00 | 0.15 | 62 | 1011.9 |
| 20260502161501 | 12 | 90 | 4.8 | 0.0 | 0.00 | 0.00 | 0.15 | 61 | 1012.2 |
| 20260502161001 | 11 | 23 | 1.6 | 0.0 | 0.00 | 0.00 | 0.15 | 67 | 1012.2 |
| 20260502160501 | 10 | 248 | 4.8 | 0.0 | 0.00 | 0.00 | 0.15 | 71 | 1012.2 |
| 20260502152001 | 7 | 113 | 1.6 | 0.0 | 0.03 | 0.00 | 0.15 | 89 | 1012.5 |
| 20260502151502 | 6 | 135 | 0.0 | 0.0 | 0.03 | 0.00 | 0.15 | 89 | 1012.5 |
| 20260502151002 | 6 | 23 | 4.8 | 0.0 | 0.05 | 0.00 | 0.15 | 90 | 1012.9 |
| 20260502130502 | 3 | 338 | 3.2 | 0.0 | 0.08 | 0.00 | 0.08 | 91 | 1013.2 |
| 20260502122502 | 3 | 0 | 0.0 | 0.0 | 0.03 | 0.00 | 0.03 | 91 | 1013.2 |
| 20260502121502 | 3 | 315 | 3.2 | 0.0 | 0.00 | 0.00 | 0.00 | 90 | 1012.9 |
| 20260502121002 | 3 | 338 | 4.8 | 0.0 | 0.00 | 0.00 | 0.00 | 91 | 1012.9 |
| 20260502120502 | 3 | 338 | 1.6 | 0.0 | 0.00 | 0.00 | 0.00 | 91 | 1013.2 |
| 20260502115502 | 3 | 338 | 3.2 | 0.0 | 0.00 | 0.00 | 0.00 | 91 | 1012.9 |
| 20260502114501 | 3 | 0 | 3.2 | 0.0 | 0.00 | 0.00 | 0.00 | 91 | 1012.9 |
| 20260502114002 | 3 | 293 | 0.0 | 0.0 | 0.00 | 0.00 | 0.00 | 92 | 1012.9 |
| 20260502113002 | 3 | 338 | 3.2 | 0.0 | 0.00 | 0.00 | 0.00 | 92 | 1012.9 |
| 20260502112501 | 3 | 315 | 1.6 | 0.0 | 0.00 | 0.00 | 0.00 | 93 | 1012.9 |
| 20260502112002 | 3 | 293 | 1.6 | 0.0 | 0.00 | 0.00 | 0.00 | 93 | 1012.9 |
| 20260502111502 | 3 | 315 | 1.6 | 0.0 | 0.00 | 0.00 | 0.00 | 93 | 1012.5 |
| 20260502111002 | 3 | 293 | 1.6 | 0.0 | 0.00 | 0.00 | 0.00 | 93 | 1012.5 |
| 20260502110002 | 3 | 0 | 3.2 | 0.0 | 0.00 | 0.00 | 0.00 | 90 | 1012.5 |
| 20260502105002 | 3 | 315 | 0.0 | 0.0 | 0.00 | 0.00 | 0.00 | 90 | 1012.5 |
| 20260502104002 | 2 | 90 | 4.8 | 0.0 | 0.00 | 0.00 | 0.00 | 90 | 1012.5 |
| 20260502103502 | 2 | 23 | 3.2 | 0.0 | 0.00 | 0.00 | 0.00 | 91 | 1012.5 |
| 20260502103002 | 3 | 270 | 0.0 | 0.0 | 0.00 | 0.00 | 0.00 | 92 | 1012.5 |
| 20260502102502 | 3 | 0 | 3.2 | 0.0 | 0.00 | 0.00 | 0.00 | 92 | 1012.5 |
| 20260502102001 | 3 | 23 | 0.0 | 0.0 | 0.00 | 0.00 | 0.00 | 91 | 1012.5 |
| 20260502101502 | 3 | 45 | 0.0 | 0.0 | 0.00 | 0.00 | 0.00 | 91 | 1012.5 |
| 20260502101001 | 3 | 23 | 3.2 | 0.0 | 0.00 | 0.00 | 0.00 | 91 | 1012.2 |
| 20260502100502 | 3 | 45 | 3.2 | 0.0 | 0.00 | 0.00 | 0.00 | 90 | 1012.5 |
| 20260502091501 | 3 | 293 | 1.6 | 0.0 | 0.00 | 0.00 | 0.00 | 87 | 1012.2 |
| 20260502091001 | 3 | 23 | 3.2 | 0.0 | 0.00 | 0.00 | 0.00 | 87 | 1012.2 |
| 20260502090502 | 3 | 338 | 4.8 | 0.0 | 0.00 | 0.00 | 0.00 | 89 | 1012.2 |
| 20260502071501 | 4 | 23 | 3.2 | 0.0 | 0.00 | 0.00 | 0.00 | 83 | 1011.9 |
| 20260502070501 | 4 | 248 | 3.2 | 0.0 | 0.00 | 0.00 | 0.00 | 84 | 1011.5 |
| 20260502070001 | 4 | 338 | 4.8 | 0.0 | 0.00 | 0.00 | 0.00 | 85 | 1011.5 |
| 20260502065502 | 4 | 315 | 6.4 | 0.0 | 0.00 | 0.00 | 0.00 | 86 | 1011.9 |
| 20260502064503 | 5 | 315 | 6.4 | 0.0 | 0.00 | 0.00 | 0.00 | 84 | 1011.5 |
| 20260502064001 | 5 | 293 | 0.0 | 0.0 | 0.00 | 0.00 | 0.00 | 84 | 1011.5 |
| 20260502063501 | 5 | 113 | 1.6 | 0.0 | 0.00 | 0.00 | 0.00 | 84 | 1011.5 |
| 20260502063002 | 5 | 135 | 1.6 | 0.0 | 0.00 | 0.00 | 0.00 | 84 | 1011.5 |
| 20260502062501 | 5 | 45 | 1.6 | 0.0 | 0.00 | 0.00 | 0.00 | 84 | 1011.5 |
| 20260502062007 | 5 | 68 | 0.0 | 0.0 | 0.00 | 0.00 | 0.00 | 84 | 1011.5 |
| 20260502061501 | 5 | 315 | 1.6 | 0.0 | 0.00 | 0.00 | 0.00 | 83 | 1011.5 |
| 20260502061001 | 5 | 338 | 0.0 | 0.0 | 0.00 | 0.00 | 0.00 | 83 | 1011.5 |
| 20260502060502 | 5 | 68 | 0.0 | 0.0 | 0.00 | 0.00 | 0.00 | 83 | 1011.5 |
| 20260502060002 | 5 | 315 | 3.2 | 0.0 | 0.00 | 0.00 | 0.00 | 83 | 1011.5 |
| 20260502055502 | 5 | 45 | 0.0 | 0.0 | 0.00 | 0.00 | 0.00 | 84 | 1011.5 |
| 20260502055002 | 5 | 293 | 0.0 | 0.0 | 0.00 | 0.00 | 0.00 | 84 | 1011.5 |
| 20260502054502 | 5 | 315 | 3.2 | 0.0 | 0.00 | 0.00 | 0.00 | 84 | 1011.5 |
| 20260502054001 | 5 | 338 | 3.2 | 0.0 | 0.00 | 0.00 | 0.00 | 84 | 1011.5 |
| 20260502053501 | 5 | 338 | 3.2 | 0.0 | 0.00 | 0.00 | 0.00 | 84 | 1011.5 |
| 20260502053002 | 4 | 293 | 1.6 | 0.0 | 0.00 | 0.00 | 0.00 | 84 | 1011.5 |
| 20260502052501 | 4 | 315 | 1.6 | 0.0 | 0.00 | 0.00 | 0.00 | 85 | 1011.5 |
| 20260502052002 | 4 | 338 | 0.0 | 0.0 | 0.00 | 0.00 | 0.00 | 86 | 1011.5 |
| 20260502051002 | 4 | 315 | 0.0 | 0.0 | 0.00 | 0.00 | 0.00 | 87 | 1011.5 |
| 20260502050502 | 4 | 0 | 0.0 | 0.0 | 0.00 | 0.00 | 0.00 | 87 | 1011.5 |
| 20260502050001 | 3 | 68 | 0.0 | 0.0 | 0.00 | 0.00 | 0.00 | 88 | 1011.5 |
| 20260502045001 | 3 | 293 | 0.0 | 0.0 | 0.00 | 0.00 | 0.00 | 91 | 1011.5 |
| 20260502044502 | 3 | 293 | 0.0 | 0.0 | 0.00 | 0.00 | 0.00 | 92 | 1011.2 |
| 20260502044002 | 3 | 180 | 0.0 | 0.0 | 0.00 | 0.00 | 0.00 | 92 | 1011.5 |
| 20260502043002 | 3 | 90 | 0.0 | 0.0 | 0.00 | 0.00 | 0.00 | 92 | 1011.2 |
| 20260502042502 | 3 | 158 | 0.0 | 0.0 | 0.00 | 0.00 | 0.00 | 92 | 1011.2 |
| 20260502042001 | 3 | 180 | 0.0 | 0.0 | 0.00 | 0.00 | 0.00 | 92 | 1011.5 |
| 20260502041502 | 3 | 180 | 0.0 | 0.0 | 0.00 | 0.00 | 0.00 | 92 | 1011.5 |
| 20260502041002 | 3 | 158 | 0.0 | 0.0 | 0.00 | 0.00 | 0.00 | 91 | 1011.5 |
| 20260502040501 | 3 | 135 | 0.0 | 0.0 | 0.00 | 0.00 | 0.00 | 89 | 1011.2 |
| 20260502040001 | 3 | 180 | 0.0 | 0.0 | 0.00 | 0.00 | 0.00 | 90 | 1011.2 |
| 20260502035001 | 3 | 113 | 0.0 | 0.0 | 0.00 | 0.00 | 0.00 | 90 | 1011.2 |
| 20260502034502 | 3 | 23 | 1.6 | 0.0 | 0.00 | 0.00 | 0.00 | 90 | 1011.2 |
| 20260502034002 | 3 | 338 | 3.2 | 0.0 | 0.00 | 0.00 | 0.00 | 90 | 1011.2 |
| 20260502033502 | 3 | 113 | 0.0 | 0.0 | 0.00 | 0.00 | 0.00 | 89 | 1011.2 |
| 20260502033002 | 3 | 135 | 0.0 | 0.0 | 0.00 | 0.00 | 0.00 | 88 | 1011.2 |
| 20260502032501 | 3 | 180 | 0.0 | 0.0 | 0.00 | 0.00 | 0.00 | 89 | 1011.2 |
| 20260502031502 | 3 | 158 | 0.0 | 0.0 | 0.00 | 0.00 | 0.00 | 88 | 1011.2 |
| 20260502031002 | 3 | 135 | 0.0 | 0.0 | 0.00 | 0.00 | 0.00 | 88 | 1011.2 |
| 20260502030502 | 4 | 113 | 0.0 | 0.0 | 0.00 | 0.00 | 0.00 | 87 | 1011.5 |
| 20260502030001 | 4 | 180 | 0.0 | 0.0 | 0.00 | 0.00 | 0.00 | 88 | 1011.5 |
| 20260502025501 | 4 | 158 | 0.0 | 0.0 | 0.00 | 0.00 | 0.00 | 88 | 1011.5 |
| 20260502025001 | 4 | 158 | 0.0 | 0.0 | 0.00 | 0.00 | 0.00 | 87 | 1011.5 |
| 20260502024502 | 4 | 113 | 0.0 | 0.0 | 0.00 | 0.00 | 0.00 | 86 | 1011.5 |
| 20260502024002 | 4 | 90 | 0.0 | 0.0 | 0.00 | 0.00 | 0.00 | 85 | 1011.5 |
| 20260502023502 | 4 | 135 | 0.0 | 0.0 | 0.00 | 0.00 | 0.00 | 84 | 1011.5 |
| 20260502023001 | 5 | 135 | 0.0 | 0.0 | 0.00 | 0.00 | 0.00 | 83 | 1011.5 |
| 20260502022501 | 5 | 135 | 0.0 | 0.0 | 0.00 | 0.00 | 0.00 | 83 | 1011.5 |
| 20260502022002 | 5 | 135 | 0.0 | 0.0 | 0.00 | 0.00 | 0.00 | 82 | 1011.5 |
| 20260502021502 | 5 | 113 | 0.0 | 0.0 | 0.00 | 0.00 | 0.00 | 82 | 1011.5 |
| 20260502020502 | 5 | 135 | 0.0 | 0.0 | 0.00 | 0.00 | 0.00 | 80 | 1011.5 |
| 20260502020002 | 5 | 135 | 0.0 | 0.0 | 0.00 | 0.00 | 0.00 | 78 | 1011.5 |
| 20260502015502 | 5 | 158 | 0.0 | 0.0 | 0.00 | 0.00 | 0.00 | 79 | 1011.5 |
| 20260502015002 | 6 | 158 | 0.0 | 0.0 | 0.00 | 0.00 | 0.00 | 76 | 1011.5 |
| 20260502014501 | 6 | 158 | 1.6 | 0.0 | 0.00 | 0.00 | 0.00 | 77 | 1011.5 |
| 20260502014001 | 6 | 180 | 1.6 | 0.0 | 0.00 | 0.00 | 0.00 | 77 | 1011.5 |
| 20260502013002 | 6 | 158 | 0.0 | 0.0 | 0.00 | 0.00 | 0.00 | 77 | 1011.5 |
| 20260502012507 | 6 | 180 | 0.0 | 0.0 | 0.00 | 0.00 | 0.00 | 75 | 1011.2 |
| 20260502012002 | 6 | 135 | 0.0 | 0.0 | 0.00 | 0.00 | 0.00 | 72 | 1011.2 |
| 20260502011002 | 6 | 113 | 0.0 | 0.0 | 0.00 | 0.00 | 0.00 | 71 | 1011.5 |
| 20260502010501 | 6 | 135 | 0.0 | 0.0 | 0.00 | 0.00 | 0.00 | 64 | 1011.5 |
| 20260502010001 | 7 | 180 | 0.0 | 0.0 | 0.00 | 0.00 | 0.00 | 62 | 1011.2 |
| 20260502005501 | 7 | 135 | 0.0 | 0.0 | 0.00 | 0.00 | 0.00 | 62 | 1011.2 |
| 20260502005001 | 7 | 158 | 0.0 | 0.0 | 0.00 | 0.00 | 0.00 | 60 | 1011.2 |
| 20260502004502 | 7 | 158 | 0.0 | 0.0 | 0.00 | 0.00 | 0.00 | 60 | 1011.2 |
| 20260502004001 | 7 | 180 | 0.0 | 0.0 | 0.00 | 0.00 | 0.00 | 60 | 1011.2 |
| 20260502003501 | 8 | 180 | 0.0 | 0.0 | 0.00 | 0.00 | 0.00 | 57 | 1011.2 |
| 20260502003001 | 8 | 180 | 0.0 | 0.0 | 0.00 | 0.00 | 0.00 | 56 | 1011.2 |
| 20260502002502 | 8 | 270 | 0.0 | 0.0 | 0.00 | 0.00 | 0.00 | 56 | 1011.2 |
| 20260502002002 | 8 | 270 | 0.0 | 0.0 | 0.00 | 0.00 | 0.00 | 55 | 1011.2 |
| 20260502001002 | 9 | 270 | 0.0 | 0.0 | 0.00 | 0.00 | 0.00 | 54 | 1010.8 |
| 20260502000502 | 9 | 225 | 1.6 | 0.0 | 0.00 | 0.00 | 0.00 | 53 | 1010.8 |
| 20260502000002 | 9 | 225 | 0.0 | 0.0 | 0.00 | 0.00 | 0.00 | 52 | 1010.8 |
| 20260501235501 | 10 | 270 | 3.2 | 0.0 | 0.00 | 0.00 | 0.00 | 51 | 1010.8 |
| 20260501234502 | 10 | 180 | 1.6 | 0.0 | 0.00 | 0.00 | 0.00 | 50 | 1010.8 |
| 20260501234001 | 10 | 293 | 1.6 | 0.0 | 0.00 | 0.00 | 0.00 | 52 | 1010.8 |
| 20260501233502 | 10 | 45 | 3.2 | 0.0 | 0.00 | 0.00 | 0.00 | 51 | 1010.8 |
| 20260501232502 | 10 | 203 | 0.0 | 0.0 | 0.00 | 0.00 | 0.00 | 50 | 1010.5 |
| 20260501231502 | 10 | 203 | 0.0 | 0.0 | 0.00 | 0.00 | 0.00 | 50 | 1010.5 |
| 20260501230506 | 10 | 135 | 0.0 | 0.0 | 0.00 | 0.00 | 0.00 | 49 | 1010.5 |
| 20260501230001 | 10 | 338 | 1.6 | 0.0 | 0.00 | 0.00 | 0.00 | 49 | 1010.5 |
| 20260501225502 | 10 | 0 | 0.0 | 0.0 | 0.00 | 0.00 | 0.00 | 50 | 1010.2 |
| 20260501225002 | 10 | 270 | 0.0 | 0.0 | 0.00 | 0.00 | 0.00 | 50 | 1010.5 |
| 20260501224502 | 10 | 113 | 0.0 | 0.0 | 0.00 | 0.00 | 0.00 | 51 | 1010.2 |
| 20260501224002 | 10 | 0 | 3.2 | 0.0 | 0.00 | 0.00 | 0.00 | 50 | 1010.2 |
| 20260501223502 | 10 | 0 | 3.2 | 0.0 | 0.00 | 0.00 | 0.00 | 48 | 1010.2 |
| 20260501223002 | 10 | 45 | 3.2 | 0.0 | 0.00 | 0.00 | 0.00 | 50 | 1010.2 |
| 20260501222502 | 10 | 23 | 4.8 | 0.0 | 0.00 | 0.00 | 0.00 | 49 | 1010.2 |
| 20260501222001 | 11 | 338 | 4.8 | 0.0 | 0.00 | 0.00 | 0.00 | 49 | 1010.2 |
| 20260501221502 | 11 | 90 | 0.0 | 0.0 | 0.00 | 0.00 | 0.00 | 48 | 1010.2 |
| 20260501221002 | 11 | 293 | 1.6 | 0.0 | 0.00 | 0.00 | 0.00 | 49 | 1010.2 |
| 20260501220002 | 11 | 315 | 1.6 | 0.0 | 0.00 | 0.00 | 0.00 | 48 | 1010.2 |
| 20260501215501 | 11 | 0 | 6.4 | 0.0 | 0.00 | 0.00 | 0.00 | 47 | 1010.2 |
| 20260501215001 | 11 | 315 | 4.8 | 0.0 | 0.00 | 0.00 | 0.00 | 45 | 1010.2 |
| 20260501214002 | 12 | 338 | 3.2 | 0.0 | 0.00 | 0.00 | 0.00 | 45 | 1010.2 |
| 20260501213501 | 12 | 23 | 3.2 | 0.0 | 0.00 | 0.00 | 0.00 | 45 | 1010.2 |
| 20260501213002 | 12 | 315 | 3.2 | 0.0 | 0.00 | 0.00 | 0.00 | 46 | 1010.2 |
| 20260501212002 | 11 | 315 | 4.8 | 0.0 | 0.00 | 0.00 | 0.00 | 47 | 1010.2 |
| 20260501211501 | 11 | 315 | 6.4 | 0.0 | 0.00 | 0.00 | 0.00 | 46 | 1010.2 |
| 20260501211001 | 11 | 45 | 9.7 | 0.0 | 0.00 | 0.00 | 0.00 | 46 | 1010.2 |